Date String (YYYY-MM-DD hh:mm:ss) UTC,Instrument flags,Ambient pressure (hPa),Sample flow (lpm),Bypass flow (lpm),Sample temperature (°C),Ambient temperature (°C),ASC tube jacket temperature (°C),LED temperature (°C),Box temperature (°C),Sample RH (%),Span deviation,Mass concentration (μg/m³),Mass concentration (μg/m³),Mass concentration (μg/m³)
DateTimeUTC,F1_M11,P_M11,Q1_M11,Q2_M11,T1_M11,T2_M11,T3_M11,T4_M11,T5_M11,U1_M11,ZSPAN_M11,X0_M11,X2_M11,X1_M11
2023-02-02 22:00:00,,0831.4,5.03,0.00,28.1,27.0,00.0,36.8,29.9,09.6,0000.0,0020.79,0010.39,0009.13
2023-02-02 22:01:00,,0831.5,4.96,0.00,28.1,27.0,00.0,36.8,29.9,09.1,0000.0,0021.10,0010.20,0008.95
2023-02-02 22:02:00,,0831.5,5.02,0.00,28.1,27.0,00.0,36.8,29.9,09.1,0000.0,0021.17,0010.12,0008.85
2023-02-02 22:03:00,,0831.5,5.04,0.00,28.1,27.0,00.0,36.8,29.9,08.9,0000.0,0020.83,0010.06,0008.81
2023-02-02 22:04:00,,0831.5,4.95,0.00,28.1,27.0,00.0,36.8,29.9,08.9,0000.0,0020.86,0010.01,0008.80
2023-02-02 22:05:00,,0831.5,5.03,0.00,28.1,27.0,00.0,36.8,29.9,09.4,0000.0,0019.80,0009.94,0008.77
2023-02-02 22:06:00,,0831.5,5.00,0.00,28.2,27.0,00.0,36.9,30.0,08.9,0000.0,0018.76,0009.95,0008.74
2023-02-02 22:07:00,,0831.5,4.99,0.00,28.2,27.1,00.0,36.9,30.0,09.1,0000.0,0018.69,0010.03,0008.79
2023-02-02 22:08:00,,0831.5,5.03,0.00,28.2,27.1,00.0,36.9,30.0,09.2,0000.0,0019.20,0010.23,0008.96
2023-02-02 22:09:00,,0831.5,4.95,0.00,28.2,27.1,00.0,36.9,30.0,09.3,0000.0,0019.93,0010.43,0009.12
2023-02-02 22:10:00,,0831.5,5.03,0.00,28.2,27.1,00.0,36.9,30.0,09.5,0000.0,0019.99,0010.53,0009.24
2023-02-02 22:11:00,,0831.6,4.95,0.00,28.2,27.1,00.0,36.9,30.1,09.5,0000.0,0020.56,0010.64,0009.31
2023-02-02 22:12:00,,0831.5,5.05,0.00,28.2,27.1,00.0,36.9,30.1,09.4,0000.0,0020.49,0010.72,0009.34
2023-02-02 22:13:00,,0831.5,4.96,0.00,28.2,27.1,00.0,36.9,30.1,09.2,0000.0,0020.31,0010.67,0009.30
2023-02-02 22:14:00,,0831.5,5.03,0.00,28.3,27.1,00.0,36.9,30.1,09.1,0000.0,0021.05,0010.61,0009.23
2023-02-02 22:15:00,,0831.5,4.97,0.00,28.3,27.1,00.0,37.0,30.1,09.0,0000.0,0020.94,0010.54,0009.15
2023-02-02 22:16:00,,0831.6,5.04,0.00,28.3,27.1,00.0,37.0,30.1,09.0,0000.0,0021.25,0010.46,0009.08
2023-02-02 22:17:00,,0831.6,4.96,0.00,28.3,27.1,00.0,37.0,30.1,08.9,0000.0,0021.34,0010.30,0008.97
2023-02-02 22:18:00,,0831.6,5.05,0.00,28.3,27.1,00.0,37.0,30.1,09.0,0000.0,0022.07,0010.19,0008.85
2023-02-02 22:19:00,,0831.6,4.98,0.00,28.3,27.2,00.0,37.0,30.1,09.1,0000.0,0022.13,0010.03,0008.71
2023-02-02 22:20:00,,0831.6,4.98,0.00,28.3,27.2,00.0,37.0,30.1,09.1,0000.0,0022.15,0009.83,0008.49
2023-02-02 22:21:00,,0831.6,5.07,0.00,28.3,27.2,00.0,37.0,30.1,09.2,0000.0,0022.04,0009.61,0008.26
2023-02-02 22:22:00,,0831.7,4.99,0.00,28.3,27.2,00.0,37.0,30.1,09.1,0000.0,0021.59,0009.45,0008.09
2023-02-02 22:23:00,,0831.7,4.98,0.00,28.4,27.2,00.0,37.1,30.2,09.2,0000.0,0021.38,0009.31,0007.98
2023-02-02 22:24:00,,0831.7,4.99,0.00,28.4,27.2,00.0,37.1,30.2,09.1,0000.0,0021.31,0009.26,0007.91
2023-02-02 22:25:00,,0831.7,5.03,0.00,28.4,27.2,00.0,37.1,30.2,09.2,0000.0,0020.89,0009.18,0007.85
2023-02-02 22:26:00,,0831.7,4.99,0.00,28.4,27.2,00.0,37.1,30.2,09.3,0000.0,0020.10,0009.08,0007.79
2023-02-02 22:27:00,,0831.7,5.00,0.00,28.4,27.2,00.0,37.1,30.2,09.3,0000.0,0019.22,0009.13,0007.79
2023-02-02 22:28:00,,0831.7,5.01,0.00,28.4,27.2,00.0,37.1,30.2,09.2,0000.0,0018.98,0009.25,0007.88
2023-02-02 22:29:00,,0831.7,4.98,0.00,28.4,27.2,00.0,37.1,30.2,09.1,0000.0,0018.41,0009.30,0007.92
2023-02-02 22:30:00,,0831.7,4.98,0.00,28.4,27.2,00.0,37.1,30.2,08.9,0000.0,0019.01,0009.36,0007.96
2023-02-02 22:31:00,,0831.7,5.02,0.00,28.4,27.2,00.0,37.2,30.2,09.0,0000.0,0018.85,0009.46,0008.03
2023-02-02 22:32:00,,0831.7,5.00,0.00,28.4,27.2,00.0,37.2,30.2,09.1,0000.0,0018.86,0009.55,0008.11
2023-02-02 22:33:00,,0831.7,4.99,0.00,28.4,27.2,00.0,37.2,30.3,09.1,0000.0,0018.61,0009.56,0008.15
2023-02-02 22:34:00,,0831.7,5.01,0.00,28.5,27.2,00.0,37.2,30.3,09.1,0000.0,0018.65,0009.55,0008.17
2023-02-02 22:35:00,,0831.7,4.96,0.00,28.5,27.2,00.0,37.2,30.3,09.1,0000.0,0018.60,0009.49,0008.14
2023-02-02 22:36:00,,0831.7,5.05,0.00,28.5,27.2,00.0,37.2,30.3,08.9,0000.0,0017.92,0009.46,0008.14
2023-02-02 22:37:00,,0831.8,4.94,0.00,28.5,27.2,00.0,37.2,30.3,08.8,0000.0,0017.66,0009.43,0008.08
2023-02-02 22:38:00,,0831.7,5.05,0.00,28.5,27.2,00.0,37.2,30.3,08.7,0000.0,0017.49,0009.26,0007.97
2023-02-02 22:39:00,,0831.7,4.95,0.00,28.5,27.3,00.0,37.2,30.3,08.9,0000.0,0017.48,0009.04,0007.76
2023-02-02 22:40:00,,0831.8,5.06,0.00,28.5,27.3,00.0,37.2,30.3,09.0,0000.0,0017.82,0008.87,0007.59
2023-02-02 22:41:00,,0831.7,4.95,0.00,28.5,27.3,00.0,37.3,30.3,09.0,0000.0,0017.37,0008.69,0007.41
2023-02-02 22:42:00,,0831.7,5.04,0.00,28.5,27.3,00.0,37.3,30.3,08.8,0000.0,0016.97,0008.41,0007.16
2023-02-02 22:43:00,,0831.8,4.98,0.00,28.5,27.3,00.0,37.3,30.3,08.8,0000.0,0017.37,0008.04,0006.86
2023-02-02 22:44:00,,0831.8,4.98,0.00,28.5,27.3,00.0,37.3,30.3,08.8,0000.0,0017.40,0007.67,0006.56
2023-02-02 22:45:00,,0831.9,5.04,0.00,28.5,27.3,00.0,37.3,30.3,08.7,0000.0,0017.15,0007.35,0006.28
2023-02-02 22:46:00,,0831.8,4.99,0.00,28.5,27.3,00.0,37.3,30.3,08.7,0000.0,0016.89,0007.00,0005.97
2023-02-02 22:47:00,,0831.9,4.99,0.00,28.5,27.3,00.0,37.3,30.3,08.9,0000.0,0016.66,0006.66,0005.67
2023-02-02 22:48:00,,0831.9,4.99,0.00,28.5,27.3,00.0,37.3,30.3,09.1,0000.0,0017.13,0006.40,0005.46
2023-02-02 22:49:00,,0831.8,5.04,0.00,28.5,27.3,00.0,37.3,30.3,09.2,0000.0,0016.96,0006.22,0005.32
2023-02-02 22:50:00,,0831.9,4.96,0.00,28.5,27.3,00.0,37.3,30.3,09.1,0000.0,0016.40,0006.07,0005.22
2023-02-02 22:51:00,,0832.0,5.05,0.00,28.6,27.3,00.0,37.3,30.3,09.1,0000.0,0016.04,0005.99,0005.17
2023-02-02 22:52:00,,0832.0,4.96,0.00,28.6,27.3,00.0,37.3,30.4,09.2,0000.0,0015.23,0005.95,0005.17
2023-02-02 22:53:00,,0832.0,5.05,0.00,28.6,27.3,00.0,37.3,30.4,09.3,0000.0,0015.04,0006.01,0005.28
2023-02-02 22:54:00,,0832.0,4.95,0.00,28.6,27.3,00.0,37.3,30.4,09.4,0000.0,0014.65,0006.19,0005.44
2023-02-02 22:55:00,,0831.9,5.05,0.00,28.6,27.3,00.0,37.3,30.4,09.4,0000.0,0014.34,0006.37,0005.61
2023-02-02 22:56:00,,0832.0,4.95,0.00,28.6,27.3,00.0,37.4,30.4,09.5,0000.0,0014.15,0006.54,0005.78
2023-02-02 22:57:00,,0832.0,5.05,0.00,28.6,27.3,00.0,37.4,30.4,09.6,0000.0,0014.04,0006.70,0005.96
2023-02-02 22:58:00,,0831.9,4.95,0.00,28.6,27.3,00.0,37.4,30.4,09.5,0000.0,0014.02,0006.83,0006.10
2023-02-02 22:59:00,,0831.9,5.06,0.00,28.6,27.3,00.0,37.4,30.4,09.5,0000.0,0013.41,0006.90,0006.16
